TimeEET,TemperatureF,Dew PointF,Humidity,Sea Level PressureIn,VisibilityMPH,Wind Direction,Wind SpeedMPH,Gust SpeedMPH,PrecipitationIn,Events,Conditions,WindDirDegrees,DateUTC
12:20 AM,42.8,42.8,100,29.74,3.7,NNW,23.0,-,N/A,Rain,Light Rain Showers,340,2013-01-26 22:20:00
12:50 AM,42.8,42.8,100,29.77,3.7,NNW,20.7,-,N/A,Rain,Light Rain Showers,340,2013-01-26 22:50:00
1:20 AM,42.8,42.8,100,29.74,3.7,NNW,19.6,-,N/A,Rain,Light Rain Showers,340,2013-01-26 23:20:00
1:50 AM,44.6,42.8,93,29.74,3.7,North,20.7,-,N/A,Rain,Light Rain Showers,350,2013-01-26 23:50:00
2:00 AM,44,43,97,29.77,4,North,20.7,,,Rain,Light Rain Showers,350,2013-01-27 00:00:00
2:20 AM,44.6,42.8,93,29.77,3.7,North,20.7,-,N/A,Rain,Light Rain Showers,350,2013-01-27 00:20:00
2:50 AM,42.8,42.8,100,29.77,3.7,North,18.4,-,N/A,Rain,Light Rain Showers,350,2013-01-27 00:50:00
3:20 AM,42.8,41.0,93,29.77,3.7,North,20.7,-,N/A,Rain,Light Rain Showers,350,2013-01-27 01:20:00
4:20 AM,42.8,41.0,93,29.80,3.7,North,24.2,-,N/A,Rain,Light Rain Showers,350,2013-01-27 02:20:00
4:50 AM,41.0,41.0,100,29.77,3.7,North,23.0,-,N/A,Rain,Light Rain Showers,350,2013-01-27 02:50:00
5:20 AM,41.0,41.0,100,29.80,3.7,North,23.0,-,N/A,Rain,Light Rain Showers,350,2013-01-27 03:20:00
5:50 AM,41.0,39.2,93,29.80,3.7,North,24.2,-,N/A,Rain,Light Rain Showers,360,2013-01-27 03:50:00
6:20 AM,41.0,37.4,87,29.80,5.0,North,24.2,35.7,N/A,Rain,Light Rain Showers,360,2013-01-27 04:20:00
6:50 AM,41.0,37.4,87,29.83,5.0,North,25.3,-,N/A,Rain,Light Rain Showers,360,2013-01-27 04:50:00
7:20 AM,41.0,35.6,81,29.83,3.7,North,25.3,-,N/A,Rain,Light Rain Showers,360,2013-01-27 05:20:00
7:50 AM,39.2,35.6,87,29.83,3.7,North,25.3,-,N/A,Rain,Light Rain Showers,360,2013-01-27 05:50:00
8:00 AM,40,38,89,29.84,4,North,25.3,,,Rain,Light Rain Showers,0,2013-01-27 06:00:00
8:20 AM,39.2,35.6,87,29.83,3.7,North,25.3,36.8,N/A,Rain,Light Rain Showers,360,2013-01-27 06:20:00
8:50 AM,39.2,35.6,87,29.86,3.7,North,27.6,39.1,N/A,Rain,Light Rain Showers,360,2013-01-27 06:50:00
9:20 AM,37.4,35.6,93,29.86,6.2,North,25.3,36.8,N/A,Rain,Light Rain Showers,360,2013-01-27 07:20:00
9:50 AM,37.4,35.6,93,29.86,6.2,North,26.5,-,N/A,Rain,Light Rain Showers,360,2013-01-27 07:50:00
10:20 AM,37.4,35.6,93,29.89,6.2,North,24.2,-,N/A,Rain,Light Rain Showers,360,2013-01-27 08:20:00
10:50 AM,37.4,33.8,87,29.89,6.2,North,26.5,38.0,N/A,Rain,Light Rain Showers,360,2013-01-27 08:50:00
11:20 AM,37.4,33.8,87,29.89,6.2,North,27.6,39.1,N/A,Rain,Light Rain Showers,360,2013-01-27 09:20:00
11:50 AM,37.4,33.8,87,29.89,6.2,North,27.6,-,N/A,Rain,Light Rain Showers,360,2013-01-27 09:50:00
12:20 PM,37.4,32.0,81,29.89,6.2,North,28.8,40.3,N/A,,Mostly Cloudy,360,2013-01-27 10:20:00
12:50 PM,37.4,32.0,81,29.89,6.2,North,25.3,-,N/A,,Mostly Cloudy,360,2013-01-27 10:50:00
1:20 PM,35.6,32.0,87,29.89,3.7,North,25.3,-,N/A,Snow,Light Snow Showers,360,2013-01-27 11:20:00
1:50 PM,35.6,32.0,87,29.92,3.7,North,23.0,-,N/A,Snow,Light Snow Showers,360,2013-01-27 11:50:00
2:00 PM,36,32,79,29.92,4,North,23.0,,,Snow,Light Snow Showers,0,2013-01-27 12:00:00
2:20 PM,35.6,32.0,87,29.92,3.7,North,24.2,-,N/A,Snow,Light Snow Showers,360,2013-01-27 12:20:00
2:50 PM,35.6,32.0,87,29.92,1.2,North,26.5,-,N/A,Snow,Light Snow Showers,360,2013-01-27 12:50:00
3:20 PM,33.8,33.8,100,29.92,1.0,North,23.0,-,N/A,Snow,Snow Showers,360,2013-01-27 13:20:00
3:50 PM,33.8,33.8,100,29.92,3.7,North,21.9,-,N/A,Snow,Light Snow Showers,360,2013-01-27 13:50:00
4:20 PM,35.6,32.0,87,29.95,3.7,North,20.7,-,N/A,Rain-Snow,Light Snow Showers,360,2013-01-27 14:20:00
4:50 PM,35.6,32.0,87,29.95,3.7,North,20.7,-,N/A,Rain-Snow,Light Snow Showers,360,2013-01-27 14:50:00
5:20 PM,35.6,32.0,87,29.95,3.7,North,20.7,-,N/A,Rain-Snow,Light Snow Showers,360,2013-01-27 15:20:00
5:50 PM,35.6,32.0,87,29.95,3.7,North,17.3,-,N/A,Rain-Snow,Light Snow Showers,360,2013-01-27 15:50:00
6:20 PM,35.6,32.0,87,29.98,3.7,North,16.1,-,N/A,Rain-Snow,Light Snow Showers,360,2013-01-27 16:20:00
6:50 PM,35.6,32.0,87,29.98,3.7,North,18.4,-,N/A,Snow,Light Snow Showers,360,2013-01-27 16:50:00
7:20 PM,35.6,32.0,87,29.98,3.7,North,18.4,-,N/A,Snow,Light Snow Showers,360,2013-01-27 17:20:00
7:50 PM,35.6,32.0,87,29.98,3.7,North,17.3,-,N/A,Snow,Light Snow Showers,360,2013-01-27 17:50:00
8:00 PM,35,32,86,30.00,4,North,17.3,,,Snow,Light Snow Showers,0,2013-01-27 18:00:00
8:20 PM,33.8,33.8,100,30.01,3.7,North,16.1,-,N/A,Snow,Light Snow Showers,350,2013-01-27 18:20:00
8:50 PM,35.6,32.0,87,30.01,3.7,North,15.0,-,N/A,Snow,Light Snow Showers,360,2013-01-27 18:50:00
9:20 PM,35.6,32.0,87,30.01,3.7,North,13.8,-,N/A,Snow,Light Snow Showers,360,2013-01-27 19:20:00
9:50 PM,37.4,32.0,81,30.01,6.2,North,11.5,-,N/A,,Mostly Cloudy,360,2013-01-27 19:50:00
10:20 PM,35.6,32.0,87,30.01,6.2,North,13.8,-,N/A,,Mostly Cloudy,360,2013-01-27 20:20:00
10:50 PM,35.6,32.0,87,30.01,6.2,North,12.7,-,N/A,,Mostly Cloudy,360,2013-01-27 20:50:00
11:20 PM,35.6,32.0,87,30.01,6.2,North,8.1,-,N/A,,Mostly Cloudy,360,2013-01-27 21:20:00
11:50 PM,35.6,32.0,87,30.01,6.2,North,9.2,-,N/A,,Mostly Cloudy,360,2013-01-27 21:50:00